User: anonymous   Login
Location: Franzen
(48.6167°N, 15.3833°E)
Time: 18:51:38
(UTC+00:00)
Language:

CZ-2C R/B - Orbit

View from above orbital plane
View from above orbital plane
View from above satellite
View from above satellite

Ground track
Ground track

The orbit data is extracted from the following two-line orbital elements,

1 37766U 11039B   21171.22765826  .00000059  00000-0  20006-4 0  9999
2 37766  98.3330  37.1907 0044621 309.3619  50.3635 14.66574647529325
Epoch (UTC): 20 June 2021 05:27:49
Eccentricity: 0.0044621
inclination: 98.3330°
perigee height: 640 km
apogee height: 703 km
right ascension of ascending node: 37.1907°
argument of perigee: 309.3619°
revolutions per day: 14.66574647
mean anomaly at epoch: 50.3635°
orbit number at epoch: 52932

The dashed part of the orbit path shows where the satellite is in the earth's shadow,  

DLR